Other Public Products
Issued by NWS Charleston, SC

Home | Current Version | Previous Version | Text Only | Print | Product List | Glossary On
Versions: 1 2 3 4 5 6 7 8 9 10 11 12 13 14 15 16 17 18 19 20 21 22 23 24 25 26 27 28 29 30 31 32 33 34 35 36 37 38 39 40 41 42 43 44 45 46 47 48 49 50
000
FPUS82 KCHS 280327
OPUCHS

TEST...KCHS/KSAV Gateway Observations...TEST
National Weather Service Charleston SC
1100 PM EDT THU JUL 27 2017

NOTE: "fair" indicates few or no clouds below 12,000 feet with no
significant weather and/or obstructions to visibility.

SCZ050-WAZ558-NCZ071-TXZ119-213-PAZ071-DCZ001-FLZ074-172-MI076-
NYZ176-178-MAZ016-IL014-TNZ027-NJZ106-GAZ044-MD014-280400-

...Gateway Observations for Charleston International...

CITY           SKY/WX    TMP DP  RH WIND       PRES   REMARKS
Chas Airport   MOCLDY    78  74  87 SW5       29.97R
Seattle        PTCLDY    67  55  65 NW6       30.10F
Charlotte      CLOUDY    81  75  82 SW5       29.96S
Dallas DFW     MOCLDY    90  66  45 S8        29.87S HX  92
Dallas Love    MOCLDY    90  67  46 SE10      29.88S HX  93
Philladelphia  MOCLDY    74  69  85 SE3       29.87F
Wash National  PTCLDY    81  76  84 S7        29.85S
Baltimore      PTCLDY    76  70  82 CALM      29.85S
Miami          MOCLDY    86  75  69 CALM      30.01R HX  95
Detroit        PTCLDY    74  59  59 NE8       29.94R
Newark         CLOUDY    76  70  82 SW9       29.87F
Laguardia      CLOUDY    77  71  82 S8        29.87F
J F K          CLOUDY    75  73  93 SW12      29.89F
Boston Logan   CLOUDY    67  65  93 SW13      29.86F
Ft. Lauderdale PTCLDY    85  76  74 SE5       29.99R HX  94
Chicago O`Hare PTCLDY    71  58  63 N10       29.94S
Chicago Midway PTCLDY    72  62  71 N14       29.93S
Houston Bush   PTCLDY    86  72  62 S7        29.95R HX  92
Houston Hobby  PTCLDY    85  74  69 S9        29.95S HX  92
Nashville      LGT RAIN  82  72  71 N8        29.92R
Atlanta        MOCLDY    75  72  90 CALM      29.98F

$$

GAZ044-118-TXZ119-213-NCZ071-DCZ001-MDZ014-506-PAZ021-071-NJZ106-
NYZ176-178-MAZ106-OHZ011-021-055-MIZ076-KYZ091-ILZ014-INZ047-
MNZ060-ONZ431-280400-

...Gateway Observations for Savannah International...

CITY           SKY/WX    TMP DP  RH WIND       PRES   REMARKS
Savannah Arpt  CLOUDY    78  74  87 CALM      29.96S
Atlanta        MOCLDY    75  72  90 CALM      29.98F
Charlotte      CLOUDY    81  75  82 SW5       29.96S
Dallas DFW     MOCLDY    90  66  45 S8        29.87S HX  92
Houston Bush   PTCLDY    86  72  62 S7        29.95R HX  92
Wash National  PTCLDY    81  76  84 S7        29.85S
Wash Dulles    MOCLDY    74  73  97 CALM      29.86R
Baltimore      PTCLDY    76  70  82 CALM      29.85S
Philadelphia   MOCLDY    74  69  85 SE3       29.87F
Newark         CLOUDY    76  70  82 SW9       29.87F
Laguardia      CLOUDY    77  71  82 S8        29.87F
J F K          CLOUDY    75  73  93 SW12      29.89F
Boston         CLOUDY    67  65  93 SW13      29.86F
Pittsburg      CLOUDY    71  70  96 W5        29.91F
Akron          PTCLDY    71  67  87 CALM      29.91F
Cleveland      PTCLDY    74  67  78 N7        29.92R
Cincinnati     CLOUDY    74  74 100 CALM      29.88S
Columbus       CLOUDY    70  70 100 NE7       29.87S
Detroit        PTCLDY    74  59  59 NE8       29.94R
Chicago O`Hare PTCLDY    71  58  63 N10       29.94S
Minneapolis    PTCLDY    76  58  53 NE6       30.03R
Indianapolis   MOCLDY    74  73  97 S3        29.87F
Toronto Canada PTCLDY    68  59  73 N15       29.92S

$$




USA.gov is the U.S. government's official web portal to all federal, state and local government web resources and services.